sat.trackr.live / text

‹ back to catalog

ONEWEB-0133

NORAD 47279 · 2020-100X

PAYLOAD ACTIVE UNKNOWN

§ Identity

Operator
Country
UK
Launch date
2020-12-18
Launch site
VOSTO
Launch vehicle
Mass (kg)
RCS (m²)

Purposes: comms

External: N2YO · Heavens-Above · Gunter

§ Orbital elements

Epoch: 2026-09-03T16:19:24.241152Z

Period
109.72 min
Inclination
87.9004°
Eccentricity
0.0002016
Mean motion
13.12444311 rev/d
Perigee alt
1,212.2 km
Apogee alt
1,215.2 km
Semi-major
7,591.9 km
B*
6.1100e-6
RAAN
335.0689°
Arg perigee
97.9125°
Mean anomaly
262.2233°
Rev number
27,503

§ Raw data

ONEWEB-01331 47279U 20100X   26246.68014168  .00000015  00000+0  61100-5 0  99942 47279  87.9004 335.0689 0002016  97.9125 262.2233 13.12444311275036

JSON: /api/v1/satellites/47279 · /tle

For live sub-satellite position, see the globe view (requires WebGL).

§ Visibility from observer

Set your observer location to see the next 7 days of passes ≥ 10°. The values pass through the URL so the page stays shareable.

No JS? Fill the form by hand. The geolocation button needs JavaScript.